DELTA 1 DEB

Satellite information

Favourite Embed

Satellite Type and Status

DEBRISIN ORBIT

Key statistics

Satellite DELTA 1 DEB at a glance.

Uptime

18810

Days in orbit

Revolutions

≈ 13.4

Per day

Orbit

SSO

Sun Synchronous Orbit

Inclination

102.0

Latest

Satellite identification and parameters

Extended collection of information and parameters for DELTA 1 DEB.

Object identification

Identified? True

Debris? True

Object name: DELTA 1 DEB

International designator: 1973-086FM

Object number (NORAD): 7203

Object ID (CCSDS): 7203

Country: UNITED STATES OF AMERICA (US)

Current information (Y/N): Y

RCS size: SMALL

Orbital parameters

Period: 107.424 minutes

Inclination: 101.9971 deg

SMA: 7485.603 km

Apoapsis: 1440.852 km

Periapsis: 774.085 km

RAAN: 76.8784 deg

Eccentricy: 0.0445366

Argument of periapsis: 48.1867 deg

Mean anomaly: 315.641 deg

Mean motion: 13.40486799 rev/day

Mean motion (dot): 0.00000806 rev/day2

B* drag term: 0.0008788 1/REarth

Two-line elements (TLE)

Creation date: May 7, 2025, 3:14 a.m.

Reference frame: TEME

Reference center: EARTH

Epoch: May 6, 2025, 9:55 a.m. UTC

TLE line 0: 0 DELTA 1 DEB

TLE line 1: 1 07203U 73086FM 25126.41350258 .00000806 00000-0 87880-3 0 9998

TLE line 2: 2 07203 101.9971 76.8784 0445366 48.1867 315.6410 13.40486799506028

Live tracking on map

Real-time ground track for satellite DELTA 1 DEB.

In-orbit conjunctions

A list of the most updated potential collisions computed for object DELTA 1 DEB.

Target Orbit TCA Probability of collision Miss distance Type
REX 2 SSO 2024-11-21 20:56:29 0.0002161451 332.0 (m) PAYLOAD

Associated space launch

Meteorological satellite using radiometric imaging

DELTA 1 DEB was lifted into orbit during the mission ‘Delta 0300 | NOAA 3’, on board a Delta 0300 space rocket.

The launch took place on Nov. 6, 1973, 5:02 p.m. from Space Launch Complex 2W.

For more information about the launch, click the button.

Launch to space Delta 0300 | NOAA 3
Delta 0300 | NOAA 3

Agency: N/A

Status: Launch Successful

Launch date: Nov. 6, 1973, 5:02 p.m. UTC

Rocket: Delta 0300

Launch pad: Space Launch Complex 2W

Location: Vandenberg SFB, CA, USA

...

Latest news about this satellite

There are no fresh news available about this satellite. Check back as we update our databases every day.


Newsletter sign-up

Weekly statistics, charts and insights to help you stay on top of the space industry.